EW9318 Weather Reports


time (UTC)temp
C
wind
direction
speed
KPH
gust
KPH
rain 1hr
cm
rain 24hr
cm
rain mn
cm
humidity
%
barometer
mb
20260831165017 25 177 9.7 25.7 0.00 0.28 0.03 80 1013.9
20260831164517 24 174 11.3 25.7 0.00 0.28 0.03 82 1014.0
20260831164037 23 174 8.0 20.9 0.00 0.30 0.03 83 1014.1
20260831163517 23 166 6.4 14.5 0.00 0.30 0.03 87 1014.1
20260831163017 22 153 6.4 14.5 0.00 0.33 0.03 86 1014.1
20260831162518 22 150 6.4 12.9 0.00 0.38 0.03 87 1014.0
20260831162038 22 146 6.4 11.3 0.00 0.38 0.03 87 1014.1
20260831161538 22 140 4.8 8.0 0.00 0.41 0.03 87 1014.2
20260831161017 22 140 4.8 8.0 0.00 0.41 0.03 87 1014.2
20260831160518 22 165 3.2 12.9 0.00 0.43 0.03 87 1014.4
20260831160057 22 149 4.8 12.9 0.00 0.46 0.03 87 1014.3
20260831155517 22 145 4.8 8.0 0.00 0.46 0.03 87 1014.4
20260831155017 22 164 1.6 8.0 0.00 0.48 0.03 87 1014.4
20260831154539 22 144 3.2 12.9 0.00 0.48 0.03 87 1014.4
20260831154017 22 140 6.4 12.9 0.00 0.51 0.03 87 1014.4
20260831153518 22 150 3.2 9.7 0.00 0.51 0.03 87 1014.6
20260831153037 22 194 0.0 6.4 0.00 0.53 0.03 87 1014.8
20260831152518 22 192 1.6 9.7 0.00 0.56 0.03 88 1014.9
20260831152017 22 150 4.8 9.7 0.00 0.56 0.03 88 1014.8
20260831151517 22 137 4.8 8.0 0.00 0.58 0.03 88 1014.6
20260831151017 22 144 3.2 8.0 0.00 0.61 0.03 88 1014.9
20260831150517 22 140 3.2 8.0 0.03 0.61 0.03 87 1014.8
20260831150017 22 160 3.2 8.0 0.03 0.64 0.03 87 1014.9
20260831145517 22 150 4.8 9.7 0.03 0.64 0.03 87 1014.8
20260831145017 22 154 3.2 11.3 0.03 0.66 0.03 88 1014.7
20260831144517 22 163 1.6 11.3 0.03 0.66 0.03 89 1014.7
20260831144017 22 150 1.6 6.4 0.03 0.69 0.03 89 1014.7
20260831143517 21 132 1.6 9.7 0.03 0.69 0.03 89 1014.7
20260831143016 21 163 3.2 9.7 0.03 0.71 0.03 89 1014.8
20260831142538 21 218 0.0 8.0 0.03 0.71 0.03 90 1014.7
20260831142017 21 348 3.2 8.0 0.03 0.74 0.03 90 1014.7
20260831141517 21 28 1.6 6.4 0.03 0.74 0.03 90 1014.4
20260831141016 21 159 0.0 14.5 0.03 0.74 0.03 90 1014.4
20260831140518 21 144 4.8 14.5 0.00 0.74 0.00 90 1014.3
20260831140016 21 124 8.0 14.5 0.00 0.74 0.00 90 1014.1
20260831135537 21 127 6.4 12.9 0.00 0.76 0.00 90 1014.1
20260831135016 21 143 1.6 4.8 0.00 0.76 0.00 90 1014.4
20260831134517 21 139 0.0 1.6 0.00 0.79 0.00 89 1014.5
20260831134017 21 146 0.0 1.6 0.00 0.79 0.00 88 1014.4
20260831133518 21 145 0.0 8.0 0.00 0.79 0.00 88 1014.4
20260831133017 21 134 1.6 8.0 0.00 0.81 0.00 88 1014.2
20260831132517 21 116 1.6 8.0 0.00 0.81 0.00 88 1014.1
20260831132017 21 94 4.8 9.7 0.00 0.84 0.00 87 1014.2
20260831131538 21 122 4.8 9.7 0.00 0.84 0.00 86 1014.2
20260831131038 21 139 3.2 8.0 0.00 0.84 0.00 86 1014.4
20260831130518 21 179 3.2 8.0 0.00 0.86 0.00 86 1014.6
20260831130017 21 193 0.0 6.4 0.00 0.86 0.00 86 1014.7
20260831125518 21 197 1.6 6.4 0.00 0.86 0.00 86 1014.6
20260831125017 21 193 1.6 6.4 0.00 0.89 0.00 87 1014.6
20260831124517 21 164 1.6 6.4 0.00 0.89 0.00 87 1014.5
20260831124016 21 216 1.6 9.7 0.00 0.89 0.00 87 1014.5
20260831123517 21 227 1.6 9.7 0.00 0.91 0.00 88 1014.5
20260831123017 21 193 1.6 8.0 0.00 0.91 0.00 88 1014.6
20260831122518 21 155 0.0 4.8 0.00 0.91 0.00 89 1014.3
20260831122017 21 205 0.0 4.8 0.00 0.91 0.00 89 1014.3
20260831121516 21 218 0.0 9.7 0.00 0.91 0.00 89 1014.2
20260831121016 21 186 4.8 9.7 0.00 0.94 0.00 90 1014.2
20260831120518 21 188 3.2 8.0 0.00 0.94 0.00 91 1014.2
20260831120016 21 177 1.6 12.9 0.00 0.94 0.00 92 1014.2
20260831115516 20 134 4.8 12.9 0.00 0.94 0.00 92 1013.9
20260831115017 20 125 4.8 8.0 0.00 0.94 0.00 92 1013.6
20260831114517 20 131 4.8 8.0 0.00 0.94 0.00 92 1013.6
20260831114038 20 130 3.2 6.4 0.00 0.94 0.00 92 1013.7
20260831113516 20 123 3.2 6.4 0.00 0.94 0.00 92 1013.6
20260831113016 20 125 1.6 4.8 0.00 0.94 0.00 92 1013.6
20260831112517 20 138 0.0 4.8 0.00 0.94 0.00 92 1013.7
20260831112017 20 139 1.6 6.4 0.00 0.94 0.00 92 1013.6
20260831111517 20 145 3.2 6.4 0.00 0.94 0.00 92 1013.5
20260831111016 20 140 1.6 4.8 0.00 0.94 0.00 92 1013.6
20260831110516 20 138 1.6 6.4 0.00 0.94 0.00 92 1013.6
20260831110016 20 143 1.6 6.4 0.00 0.97 0.00 92 1013.7
20260831105516 20 150 0.0 3.2 0.00 0.97 0.00 92 1013.8
20260831105016 20 156 0.0 1.6 0.00 0.97 0.00 92 1013.8
20260831104517 20 151 0.0 3.2 0.00 0.97 0.00 92 1013.9
20260831104016 20 172 0.0 4.8 0.00 0.97 0.00 92 1013.8
20260831103517 20 155 0.0 4.8 0.00 0.97 0.00 92 1013.8
20260831103038 20 160 1.6 6.4 0.00 0.97 0.00 92 1013.8
20260831102516 20 184 1.6 8.0 0.00 0.97 0.00 93 1013.8
20260831102016 20 164 1.6 8.0 0.00 0.97 0.00 93 1013.7
20260831101536 20 152 1.6 8.0 0.00 0.97 0.00 93 1013.7
20260831101016 20 156 1.6 8.0 0.00 0.97 0.00 93 1013.7
20260831100516 19 139 0.0 4.8 0.00 0.97 0.00 93 1013.8
20260831100016 19 128 0.0 4.8 0.00 0.97 0.00 92 1013.8
20260831095516 19 130 1.6 4.8 0.00 0.97 0.00 92 1013.8
20260831095037 19 133 0.0 3.2 0.00 0.97 0.00 92 1013.9
20260831094516 19 144 0.0 1.6 0.00 0.97 0.00 92 1013.9
20260831094017 19 155 0.0 3.2 0.00 0.97 0.00 92 1014.0
20260831093516 19 152 0.0 3.2 0.00 0.97 0.00 92 1013.9
20260831093036 19 147 0.0 3.2 0.00 0.99 0.00 92 1014.0
20260831092516 19 151 0.0 3.2 0.00 0.99 0.00 92 1013.9
20260831092016 19 160 0.0 6.4 0.00 0.99 0.00 92 1014.1
20260831091516 19 164 0.0 6.4 0.00 0.99 0.00 92 1014.1
20260831091016 19 152 0.0 3.2 0.00 0.99 0.00 92 1014.1
20260831090516 19 135 0.0 3.2 0.00 0.99 0.00 92 1014.0
20260831090016 19 127 1.6 4.8 0.00 0.99 0.00 92 1014.0
20260831085556 19 141 1.6 4.8 0.00 0.99 0.00 92 1014.0
20260831085016 19 0.0 0.0 0.00 0.99 0.00 91 1014.0
20260831084537 19 0.0 0.0 0.00 0.99 0.00 91 1014.0
20260831084016 19 0.0 0.0 0.00 0.99 0.00 91 1014.0
20260831083516 19 0.0 0.0 0.00 0.99 0.00 91 1013.9
20260831083016 19 0.0 0.0 0.00 0.99 0.00 91 1013.9
20260831082536 20 0.0 0.0 0.00 0.99 0.00 90 1014.0
20260831082016 20 0.0 0.0 0.00 0.99 0.00 90 1013.9
20260831081536 20 0.0 0.0 0.00 0.99 0.00 90 1014.1
20260831081036 20 0.0 0.0 0.00 0.99 0.00 90 1014.1
20260831080516 20 0.0 0.0 0.00 0.99 0.00 90 1014.0
20260831080037 20 0.0 0.0 0.00 0.99 0.00 89 1014.1
20260831075516 20 0.0 0.0 0.00 0.99 0.00 89 1014.1
20260831075016 20 0.0 0.0 0.00 0.99 0.00 90 1014.2
20260831074516 20 0.0 0.0 0.00 0.99 0.00 90 1014.1
20260831074017 20 0.0 0.0 0.00 0.99 0.00 90 1014.3
20260831073536 20 0.0 3.2 0.00 0.99 0.00 90 1014.2
20260831073016 20 138 0.0 4.8 0.00 0.99 0.00 89 1014.2
20260831072517 20 148 1.6 4.8 0.00 0.99 0.00 89 1014.2
20260831072016 20 138 0.0 4.8 0.00 0.99 0.00 89 1014.2
20260831071517 20 139 0.0 3.2 0.00 0.99 0.00 89 1014.2
20260831071016 20 155 0.0 1.6 0.00 0.99 0.00 89 1014.2
20260831070536 20 0.0 4.8 0.00 0.99 0.00 89 1014.3
20260831070057 20 168 0.0 4.8 0.00 0.99 0.00 89 1014.3
20260831065515 20 194 0.0 4.8 0.00 0.99 0.00 89 1014.2
20260831065016 20 0.0 0.0 0.00 0.99 0.00 89 1014.2
20260831064516 20 0.0 1.6 0.00 0.99 0.00 89 1014.2
20260831064016 20 160 0.0 1.6 0.00 0.99 0.00 89 1014.1
20260831063516 20 155 0.0 4.8 0.00 0.99 0.00 89 1014.1
20260831063016 20 155 0.0 4.8 0.00 0.99 0.00 89 1014.1
20260831062516 20 136 0.0 3.2 0.00 0.99 0.00 89 1013.9
20260831062016 20 131 0.0 6.4 0.00 0.99 0.00 89 1013.8
20260831061517 20 144 1.6 6.4 0.00 0.99 0.00 89 1013.8
20260831061015 20 149 1.6 4.8 0.00 0.99 0.00 89 1013.7
20260831060517 20 150 0.0 6.4 0.00 0.99 0.00 89 1013.8
20260831060016 20 145 1.6 6.4 0.00 0.99 0.00 89 1013.8
20260831055516 20 150 1.6 6.4 0.00 0.99 0.00 89 1013.7
20260831055016 20 151 3.2 6.4 0.00 0.99 0.00 89 1014.0
20260831054516 20 160 1.6 9.7 0.00 0.99 0.00 89 1014.1
20260831054055 20 165 3.2 9.7 0.00 0.99 0.00 89 1014.1
20260831053516 20 147 3.2 9.7 0.00 0.99 0.00 89 1014.0
20260831053016 20 154 1.6 8.0 0.00 0.99 0.00 88 1014.0
20260831052516 20 137 1.6 6.4 0.00 0.99 0.00 88 1014.0
20260831052017 20 156 1.6 8.0 0.00 0.99 0.00 88 1014.2
20260831051516 20 150 1.6 8.0 0.00 0.99 0.00 88 1014.2
20260831051016 20 146 3.2 11.3 0.00 0.99 0.00 88 1014.1
20260831050515 20 147 4.8 11.3 0.00 0.99 0.00 88 1014.1
20260831050017 20 156 1.6 8.0 0.00 0.99 0.00 87 1014.2
20260831045536 20 154 1.6 9.7 0.00 0.99 0.00 87 1014.2
20260831045036 20 159 3.2 9.7 0.00 0.99 0.00 87 1014.2
20260831044515 20 153 3.2 9.7 0.00 0.99 0.00 87 1014.2
20260831044015 20 159 1.6 8.0 0.00 0.99 0.00 86 1014.2
20260831043515 21 146 4.8 11.3 0.00 0.99 0.00 86 1014.2
20260831043017 21 136 4.8 11.3 0.00 0.99 0.00 86 1014.1
20260831042515 21 148 1.6 8.0 0.00 0.99 0.00 85 1014.1
20260831042016 21 128 1.6 6.4 0.00 0.99 0.00 85 1014.2
20260831041515 21 130 3.2 8.0 0.00 0.99 0.00 85 1014.2
20260831041015 21 159 1.6 8.0 0.00 0.99 0.00 85 1014.2
20260831040534 21 157 1.6 1.6 0.00 0.99 0.00 85 1014.2
20260831040017 21 134 3.2 8.0 0.00 0.99 0.99 85 1014.0
20260831035516 21 139 0.0 9.7 0.00 0.99 0.99 85 1014.1
20260831035016 21 140 3.2 9.7 0.00 0.99 0.99 84 1014.1
20260831034536 21 132 3.2 9.7 0.00 0.99 0.99 84 1014.0
20260831034016 21 152 4.8 9.7 0.00 0.99 0.99 84 1014.1
20260831033516 21 157 3.2 9.7 0.00 0.99 0.99 84 1014.1
20260831033017 21 139 3.2 9.7 0.00 0.99 0.99 84 1014.0
20260831032617 21 124 4.8 9.7 0.00 0.99 0.99 84 1014.0
20260831032016 21 128 4.8 11.3 0.00 0.99 0.99 84 1014.0
20260831031516 21 152 4.8 14.5 0.00 0.99 0.99 84 1014.1
20260831031016 21 157 6.4 14.5 0.00 0.99 0.99 84 1014.2
20260831030516 21 155 3.2 14.5 0.00 0.99 0.99 84 1014.3
20260831030036 21 155 3.2 14.5 0.00 0.99 0.99 84 1014.2
20260831025556 21 179 3.2 9.7 0.00 0.99 0.99 84 1014.0
20260831025016 21 204 1.6 9.7 0.00 0.99 0.99 84 1014.2
20260831024516 21 224 0.0 6.4 0.00 0.99 0.99 85 1014.3
20260831024016 21 308 3.2 6.4 0.00 0.99 0.99 85 1014.1
20260831023516 21 53 3.2 14.5 0.00 0.99 0.99 85 1013.9
20260831023017 21 112 6.4 14.5 0.00 0.99 0.99 84 1013.5
20260831022517 21 121 3.2 8.0 0.00 0.99 0.99 84 1013.7
20260831022036 21 83 1.6 6.4 0.00 0.99 0.99 84 1013.8
20260831021516 21 117 3.2 9.7 0.00 0.99 0.99 84 1013.8
20260831021017 21 134 1.6 9.7 0.00 0.99 0.99 84 1013.8
20260831020517 21 159 4.8 11.3 0.00 0.99 0.99 84 1013.8
20260831020016 21 173 6.4 11.3 0.00 0.99 0.99 84 1013.9
20260831015516 21 170 4.8 11.3 0.00 0.99 0.99 83 1013.8
20260831015016 21 191 3.2 11.3 0.00 0.99 0.99 83 1014.0
20260831014516 22 217 4.8 9.7 0.00 0.99 0.99 83 1014.2
20260831014016 22 255 3.2 9.7 0.00 0.99 0.99 82 1014.2
20260831013516 22 257 1.6 8.0 0.00 0.99 0.99 83 1014.1
20260831013015 22 220 3.2 9.7 0.00 0.99 0.99 83 1014.0
20260831012516 22 202 3.2 9.7 0.00 0.99 0.99 82 1013.9
20260831012016 22 217 3.2 14.5 0.00 0.99 0.99 82 1013.8
20260831011517 22 202 4.8 14.5 0.00 0.99 0.99 82 1013.7
20260831011015 22 210 3.2 8.0 0.00 0.99 0.99 82 1013.7
20260831010537 22 227 3.2 8.0 0.00 0.99 0.99 82 1013.5
20260831010036 22 235 1.6 8.0 0.00 0.99 0.99 81 1013.5
20260831005516 22 232 3.2 8.0 0.00 0.99 0.99 81 1013.4
20260831005037 22 247 1.6 8.0 0.00 0.99 0.99 81 1013.3
20260831004516 22 199 3.2 8.0 0.00 0.99 0.99 81 1013.3
20260831004016 22 198 3.2 8.0 0.00 0.99 0.99 81 1013.2
20260831003516 22 192 3.2 6.4 0.00 0.99 0.99 81 1013.2
20260831003016 22 212 3.2 11.3 0.00 0.99 0.99 80 1013.3
20260831002517 22 230 4.8 11.3 0.00 0.99 0.99 79 1013.4
20260831002015 22 240 0.0 8.0 0.00 0.99 0.99 79 1013.3
20260831001516 22 242 1.6 8.0 0.00 0.99 0.99 79 1013.3
20260831001017 22 223 1.6 9.7 0.00 0.99 0.99 79 1013.3
20260831000516 22 243 1.6 11.3 0.00 0.99 0.99 79 1013.2
20260831000037 23 225 4.8 16.1 0.00 0.99 0.99 79 1013.3
20260830235515 23 238 9.7 22.5 0.00 0.99 0.99 78 1013.4
20260830235015 23 224 9.7 22.5 0.00 0.99 0.99 78 1013.4
20260830234516 23 235 8.0 20.9 0.00 0.99 0.99 78 1013.5
20260830234017 23 236 8.0 20.9 0.00 0.99 0.99 78 1013.5
20260830233535 23 233 8.0 17.7 0.00 0.99 0.99 77 1013.5
20260830233015 23 227 9.7 17.7 0.00 0.99 0.99 77 1013.4
20260830232516 23 227 8.0 17.7 0.00 0.99 0.99 77 1013.4
20260830232015 23 218 9.7 17.7 0.00 0.99 0.99 77 1013.4
20260830231515 23 208 4.8 16.1 0.00 0.99 0.99 77 1013.4
20260830231017 23 225 8.0 16.1 0.00 0.99 0.99 76 1013.5
20260830230557 23 203 6.4 14.5 0.00 0.99 0.99 76 1013.5
20260830230015 23 195 6.4 16.1 0.00 0.99 0.99 76 1013.6
20260830225535 23 222 6.4 16.1 0.00 0.99 0.99 75 1013.6
20260830225016 23 220 4.8 16.1 0.00 0.99 0.99 75 1013.6
20260830224515 23 231 9.7 19.3 0.00 0.99 0.99 74 1013.7
20260830224015 24 218 9.7 19.3 0.00 0.99 0.99 74 1013.7
20260830223515 24 220 9.7 17.7 0.00 0.99 0.99 73 1013.7
20260830223015 24 229 9.7 17.7 0.00 0.99 0.99 73 1013.6
20260830222516 24 236 8.0 22.5 0.00 0.99 0.99 72 1013.9
20260830222015 24 226 12.9 22.5 0.00 0.99 0.99 72 1013.7
20260830221515 25 235 11.3 22.5 0.00 0.99 0.99 71 1013.9
20260830221035 25 244 12.9 24.1 0.00 0.99 0.99 70 1013.9
20260830220516 25 225 12.9 24.1 0.00 0.99 0.99 70 1013.9
20260830220015 25 233 12.9 20.9 0.00 0.99 0.99 70 1013.9
20260830215515 25 225 11.3 20.9 0.00 0.99 0.99 69 1014.0
20260830215035 25 238 14.5 25.7 0.00 0.99 0.99 68 1014.2
20260830214515 25 229 16.1 25.7 0.00 0.99 0.99 67 1014.2
20260830214035 25 236 11.3 25.7 0.00 0.99 0.99 67 1014.2
20260830213515 25 231 14.5 25.7 0.00 0.99 0.99 67 1014.2
20260830213015 25 209 9.7 24.1 0.00 0.99 0.99 66 1014.1
20260830212535 26 223 14.5 25.7 0.00 0.99 0.99 66 1014.2
20260830212015 26 223 12.9 27.4 0.00 0.99 0.99 65 1014.2
20260830211516 26 225 12.9 27.4 0.00 0.99 0.99 65 1014.3
20260830211037 26 238 14.5 24.1 0.00 0.99 0.99 64 1014.3
20260830210515 26 218 12.9 30.6 0.00 0.99 0.99 64 1014.3
20260830210015 26 228 20.9 30.6 0.00 0.99 0.99 63 1014.3
20260830205515 26 245 14.5 25.7 0.00 0.99 0.99 63 1014.3
20260830205016 26 220 14.5 29.0 0.00 0.99 0.99 64 1014.2
20260830204515 26 227 14.5 29.0 0.00 0.99 0.99 63 1014.3
20260830204016 26 227 12.9 22.5 0.00 0.99 0.99 64 1014.2
20260830203515 27 227 11.3 25.7 0.00 0.99 0.99 63 1014.3
20260830203016 27 218 9.7 25.7 0.00 0.99 0.99 64 1014.1
20260830202515 26 225 9.7 19.3 0.00 0.99 0.99 66 1014.0
20260830202015 26 210 8.0 20.9 0.00 0.99 0.99 63 1013.9
20260830201515 26 214 9.7 32.2 0.00 0.99 0.99 62 1013.8
20260830201016 27 223 14.5 32.2 0.00 0.99 0.99 61 1013.8
20260830200516 27 222 17.7 32.2 0.00 0.99 0.99 61 1013.8
20260830200015 27 228 17.7 33.8 0.00 0.99 0.99 61 1013.7
20260830195515 27 200 14.5 33.8 0.00 0.99 0.99 61 1013.8
20260830195035 27 208 19.3 35.4 0.00 0.99 0.99 61 1013.8
20260830194515 27 185 11.3 35.4 0.00 0.99 0.99 62 1013.8
20260830194015 27 228 19.3 37.0 0.00 0.99 0.99 61 1013.7
20260830193535 27 237 22.5 38.6 0.03 0.99 0.99 61 1013.8
20260830193015 27 236 19.3 38.6 0.03 0.99 0.99 61 1013.8
20260830192515 27 216 19.3 32.2 0.03 0.99 0.99 62 1013.8
20260830192015 27 223 17.7 37.0 0.03 0.99 0.99 65 1013.7
20260830191515 27 192 16.1 37.0 0.05 0.99 0.99 64 1013.6
20260830191015 26 228 20.9 37.0 0.08 0.99 0.99 66 1013.6
20260830190515 26 185 17.7 37.0 0.08 0.99 0.99 66 1013.8
20260830190038 26 209 16.1 29.0 0.10 0.99 0.99 67 1013.6
20260830185517 26 201 14.5 33.8 0.10 0.99 0.99 68 1013.5
20260830185017 26 199 16.1 33.8 0.13 0.99 0.99 68 1013.6
20260830184516 26 193 16.1 30.6 0.13 0.99 0.99 68 1013.7
20260830184017 26 193 16.1 30.6 0.15 0.99 0.99 68 1013.6
20260830183537 26 200 12.9 37.0 0.15 0.97 0.97 69 1013.6
20260830183017 26 190 14.5 37.0 0.15 0.97 0.97 71 1013.6
20260830182517 25 177 14.5 33.8 0.15 0.97 0.97 71 1013.6
20260830182017 25 189 14.5 33.8 0.18 0.97 0.97 72 1013.6
20260830181537 25 191 11.3 35.4 0.15 0.94 0.94 73 1013.7
20260830181017 25 185 16.1 35.4 0.15 0.91 0.91 73 1013.7
20260830180518 25 178 14.5 41.8 0.15 0.91 0.91 75 1013.6
20260830180039 25 189 14.5 41.8 0.15 0.89 0.89 74 1013.7
20260830175537 24 211 17.7 37.0 0.15 0.89 0.89 74 1013.7
20260830175017 24 207 9.7 46.7 0.15 0.86 0.86 77 1013.8
20260830174517 24 199 17.7 46.7 0.15 0.86 0.86 76 1013.7
20260830174017 24 183 14.5 32.2 0.15 0.84 0.84 78 1013.7
20260830173537 23 182 12.9 27.4 0.13 0.81 0.81 78 1013.7
20260830173017 23 207 16.1 27.4 0.15 0.81 0.81 77 1013.9
20260830172517 23 193 11.3 29.0 0.18 0.81 0.81 77 1014.0
20260830172017 23 183 14.5 33.8 0.15 0.79 0.79 78 1014.0
20260830171517 23 180 14.5 33.8 0.18 0.79 0.79 80 1014.1
20260830171017 23 199 14.5 33.8 0.15 0.76 0.76 81 1014.1
20260830170516 22 186 11.3 29.0 0.18 0.76 0.76 82 1014.1
20260830170017 22 181 16.1 29.0 0.18 0.74 0.71 82 1014.2
20260830165518 22 182 14.5 30.6 0.18 0.74 0.71 84 1014.2